This is the latest recevied weather packets stored in our database for station/object KN6CRX. If no packets are shown the sender has not sent any weather packets the latest 10 day(s).
| Time | Temp. | Humidity | Pressure | Rain* | Wind** | Luminosity | Snow |
|---|---|---|---|---|---|---|---|
| 1787877225 | 30° C | 28% | 1018.6 hPa | 0 mm | - | 75 W/m² | - |
| 1787876925 | 30° C | 29% | 1018.9 hPa | 0 mm | - | 88 W/m² | - |
| 1787876621 | 30° C | 29% | 1018.6 hPa | 0 mm | - | 94 W/m² | - |
| 1787876320 | 30° C | 30% | 1018.7 hPa | 0 mm | - | 99 W/m² | - |
| 1787876019 | 30° C | 30% | 1018.6 hPa | 0 mm | - | 117 W/m² | - |
| 1787875715 | 30° C | 31% | 1018.6 hPa | 0 mm | - | 130 W/m² | - |
| 1787875413 | 30° C | 31% | 1018.6 hPa | 0 mm | - | 125 W/m² | - |
| 1787875112 | 30° C | 31% | 1018.9 hPa | 0 mm | - | 110 W/m² | - |
| 1787874807 | 30.56° C | 29% | 1018.6 hPa | 0 mm | - | 106 W/m² | - |
| 1787874505 | 30.56° C | 30% | 1018.6 hPa | 0 mm | - | 107 W/m² | - |
| 1787874201 | 30.56° C | 29% | 1018.7 hPa | 0 mm | - | 112 W/m² | - |
| 1787873895 | 30.56° C | 27% | 1019 hPa | 0 mm | - | 123 W/m² | - |
| 1787873595 | 31.11° C | 27% | 1018.7 hPa | 0 mm | - | 133 W/m² | - |
| 1787873291 | 31.11° C | 28% | 1018.7 hPa | 0 mm | - | 138 W/m² | - |
| 1787872989 | 31.11° C | 26% | 1018.7 hPa | 0 mm | - | 138 W/m² | - |
| 1787872685 | 31.67° C | 25% | 1018.7 hPa | 0 mm | - | 150 W/m² | - |
| 1787872381 | 31.67° C | 24% | 1018.9 hPa | 0 mm | - | 154 W/m² | - |
| 1787872081 | 32.22° C | 23% | 1018.9 hPa | 0 mm | - | 133 W/m² | - |
| 1787871775 | 32.78° C | 24% | 1018.9 hPa | 0 mm | - | 127 W/m² | - |
| 1787871470 | 33.89° C | 23% | 1018.7 hPa | 0 mm | - | 140 W/m² | - |
| 1787871166 | 33.89° C | 23% | 1018.9 hPa | 0 mm | - | 126 W/m² | - |
| 1787870865 | 33.33° C | 21% | 1019 hPa | 0 mm | - | 148 W/m² | - |
| 1787870560 | 32.78° C | 23% | 1018.9 hPa | 0 mm | - | 601 W/m² | - |
| 1787870256 | 33.33° C | 21% | 1019.2 hPa | 0 mm | - | 126 W/m² | - |
| 1787869950 | 34.44° C | 20% | 1018.9 hPa | 0 mm | - | 171 W/m² | - |
* Rain latest hour (hover to see other rain measurements)
** Current wind speed in m/s (hover to see current wind gust speed)